QPF
0.00 0.01 0.03 0.02 0.01 0.02 0.02 0.02 0.01 0.02 0.02 0.02 0.02 0.03 0.02 0.02 0.02 0.02 0.02 0.02 0.02 0.02 0.02 0.02 0.03 0.03 0.03 0.03 0.03 0.03 0.02 0.03 0.03 0.03 0.02 0.02 0.02 0.02 0.03 0.02 0.02 0.01 0.01
0.00 0.01 0.01 0.01 0.01 0.01 0.01 0.01 0.02 0.02 0.02 0.02 0.02 0.03 0.03 0.02 0.02 0.01 0.01 0.01 0.02 0.02 0.02 0.02 0.02 0.03 0.03 0.03 0.02 0.02 0.02 0.02 0.02 0.02 0.02 0.01 0.01 0.02 0.03 0.02 0.01 0.01 0.01
0.00 0.01 0.01 0.01 0.01 0.01 0.01 0.01 0.01 0.01 0.02 0.02 0.02 0.03 0.03 0.02 0.02 0.02 0.02 0.02 0.02 0.02 0.02 0.02 0.02 0.03 0.03 0.03 0.02 0.01 0.01 0.01 0.01 0.01 0.01 0.01 0.01 0.02 0.03 0.03 0.02 0.02 0.02
0.00 0.00 0.01 0.01 0.01 0.01 0.01 0.01 0.01 0.01 0.01 0.01 0.02 0.02 0.02 0.02 0.02 0.02 0.02 0.02 0.01 0.02 0.02 0.02 0.03 0.03 0.03 0.02 0.01 0.01 0.01 0.01 0.01 0.01 0.00 0.00 0.00 0.01 0.02 0.02 0.02 0.02 0.02
0.00 0.00 0.01 0.01 0.01 0.01 0.01 0.01 0.01 0.01 0.01 0.01 0.02 0.02 0.02 0.02 0.02 0.02 0.02 0.02 0.02 0.02 0.02 0.02 0.02 0.02 0.02 0.02 0.01 0.01 0.01 0.00 0.00 0.00 0.00 0.00 0.01 0.01 0.01 0.03 0.03 0.03 0.04
0.00 0.01 0.01 0.01 0.01 0.01 0.01 0.01 0.00 0.01 0.01 0.01 0.02 0.02 0.02 0.02 0.02 0.01 0.02 0.02 0.01 0.01 0.01 0.02 0.01 0.01 0.01 0.01 0.01 0.01 0.01 0.01 0.00 0.01 0.00 0.00 0.00 0.01 0.01 0.04 0.05 0.04 0.04
0.00 0.01 0.01 0.01 0.01 0.01 0.01 0.01 0.00 0.01 0.01 0.01 0.01 0.02 0.02 0.02 0.01 0.01 0.01 0.01 0.01 0.01 0.01 0.02 0.01 0.01 0.01 0.01 0.01 0.01 0.01 0.01 0.00 0.00 0.00 0.00 0.00 0.00 0.01 0.02 0.05 0.05 0.03
0.00 0.01 0.01 0.01 0.01 0.01 0.02 0.02 0.02 0.01 0.01 0.01 0.01 0.01 0.01 0.01 0.01 0.01 0.01 0.00 0.01 0.01 0.01 0.01 0.02 0.01 0.00 0.01 0.01 0.00 0.01 0.00 0.00 0.00 0.00 0.00 0.00 0.00 0.01 0.02 0.04 0.06 0.05
0.01 0.01 0.02 0.02 0.02 0.01 0.02 0.03 0.03 0.03 0.03 0.02 0.02 0.02 0.01 0.02 0.01 0.01 0.01 0.00 0.01 0.01 0.01 0.01 0.01 0.01 0.00 0.00 0.00 0.00 0.00 0.00 0.01 0.01 0.00 0.01 0.00 0.01 0.01 0.02 0.03 0.04 0.05
0.01 0.01 0.01 0.02 0.02 0.02 0.02 0.02 0.02 0.02 0.03 0.03 0.03 0.02 0.02 0.02 0.02 0.01 0.01 0.00 0.01 0.00 0.01 0.01 0.01 0.01 0.01 0.00 0.00 0.00 0.00 0.00 0.01 0.01 0.01 0.00 0.00 0.01 0.01 0.02 0.02 0.03 0.04
0.01 0.01 0.01 0.01 0.01 0.02 0.02 0.02 0.03 0.03 0.03 0.03 0.04 0.03 0.02 0.02 0.02 0.01 0.01 0.00 0.00 0.00 0.00 0.01 0.01 0.01 0.01 0.00 0.00 0.00 0.00 0.00 0.01 0.01 0.01 0.01 0.00 0.01 0.02 0.02 0.03 0.04 0.03
0.01 0.01 0.01 0.02 0.02 0.02 0.02 0.03 0.03 0.03 0.03 0.02 0.02 0.02 0.02 0.01 0.01 0.01 0.01 0.01 0.00 0.00 0.00 0.00 0.00 0.01 0.01 0.01 0.01 0.01 0.01 0.01 0.01 0.01 0.01 0.00 0.01 0.02 0.03 0.04 0.03 0.04 0.04
0.00 0.01 0.01 0.01 0.02 0.02 0.02 0.02 0.02 0.02 0.02 0.02 0.02 0.01 0.01 0.01 0.01 0.00 0.01 0.01 0.00 0.00 0.00 0.00 0.00 0.00 0.01 0.01 0.01 0.01 0.01 0.01 0.01 0.01 0.01 0.00 0.01 0.02 0.02 0.04 0.04 0.04 0.04
0.00 0.01 0.01 0.01 0.01 0.02 0.03 0.04 0.02 0.02 0.02 0.02 0.02 0.01 0.01 0.01 0.00 0.00 0.00 0.00 0.00 0.00 0.00 0.00 0.00 0.00 0.00 0.01 0.01 0.01 0.01 0.01 0.01 0.01 0.01 0.00 0.01 0.01 0.02 0.03 0.04 0.04 0.04
0.01 0.01 0.02 0.02 0.02 0.03 0.04 0.04 0.03 0.02 0.01 0.02 0.02 0.02 0.01 0.01 0.00 0.00 0.00 0.00 0.00 0.00 0.00 0.00 0.00 0.00 0.00 0.00 0.00 0.00 0.00 0.00 0.00 0.00 0.01 0.01 0.01 0.01 0.01 0.02 0.03 0.03 0.04
0.01 0.01 0.02 0.03 0.03 0.03 0.04 0.03 0.02 0.02 0.01 0.01 0.01 0.02 0.01 0.00 0.00 0.00 0.00 0.00 0.00 0.00 0.00 0.00 0.00 0.00 0.00 0.00 0.00 0.00 0.00 0.00 0.00 0.00 0.01 0.01 0.01 0.01 0.01 0.02 0.03 0.03 0.04
0.01 0.01 0.02 0.03 0.04 0.03 0.03 0.03 0.03 0.02 0.02 0.01 0.01 0.01 0.01 0.01 0.00 0.00 0.00 0.00 0.00 0.00 0.00 0.00 0.00 0.00 0.00 0.00 0.00 0.00 0.00 0.00 0.00 0.00 0.00 0.01 0.01 0.01 0.01 0.01 0.01 0.02 0.03
0.02 0.02 0.02 0.03 0.04 0.03 0.02 0.02 0.02 0.03 0.02 0.02 0.01 0.01 0.01 0.00 0.00 0.00 0.00 0.00 0.00 0.00 0.00 0.00 0.00 0.00 0.00 0.00 0.00 0.00 0.00 0.00 0.00 0.00 0.00 0.00 0.00 0.01 0.01 0.01 0.00 0.01 0.02
0.02 0.02 0.02 0.02 0.03 0.03 0.02 0.01 0.01 0.02 0.02 0.02 0.01 0.01 0.00 0.00 0.00 0.00 0.00 0.00 0.00 0.00 0.00 0.00 0.00 0.00 0.00 0.00 0.00 0.00 0.00 0.00 0.00 0.00 0.00 0.00 0.00 0.00 0.00 0.01 0.00 0.01 0.01
0.01 0.01 0.02 0.02 0.03 0.03 0.02 0.01 0.01 0.01 0.01 0.01 0.02 0.01 0.00 0.00 0.00 0.00 0.00 0.00 0.00 0.00 0.00 0.00 0.00 0.00 0.00 0.00 0.00 0.00 0.00 0.00 0.00 0.00 0.00 0.00 0.00 0.00 0.01 0.01 0.01 0.01 0.01
0.01 0.01 0.01 0.01 0.02 0.02 0.02 0.02 0.01 0.01 0.01 0.01 0.02 0.01 0.01 0.00 0.00 0.00 0.00 0.00 0.00 0.00 0.00 0.00 0.00 0.00 0.00 0.00 0.00 0.00 0.00 0.00 0.00 0.00 0.00 0.00 0.01 0.00 0.01 0.01 0.01 0.01 0.01
0.01 0.01 0.01 0.01 0.01 0.01 0.01 0.01 0.01 0.01 0.01 0.01 0.01 0.01 0.01 0.01 0.00 0.00 0.00 0.00 0.00 0.00 0.00 0.00 0.00 0.00 0.00 0.00 0.00 0.00 0.00 0.00 0.00 0.00 0.00 0.00 0.00 0.00 0.00 0.00 0.00 0.00 0.01
0.01 0.01 0.00 0.01 0.01 0.01 0.01 0.01 0.01 0.01 0.01 0.01 0.01 0.01 0.01 0.01 0.00 0.00 0.00 0.00 0.00 0.00 0.00 0.00 0.00 0.00 0.00 0.00 0.00 0.00 0.00 0.00 0.00 0.00 0.00 0.00 0.00 0.00 0.00 0.00 0.00 0.00 0.01
0.01 0.01 0.00 0.00 0.01 0.01 0.01 0.01 0.01 0.01 0.00 0.00 0.01 0.00 0.00 0.00 0.01 0.00 0.00 0.00 0.00 0.00 0.00 0.00 0.00 0.00 0.00 0.00 0.00 0.00 0.00 0.00 0.00 0.00 0.00 0.00 0.00 0.00 0.00 0.00 0.00 0.00 0.01
0.01 0.01 0.01 0.00 0.01 0.01 0.01 0.01 0.01 0.01 0.00 0.00 0.00 0.00 0.00 0.00 0.00 0.00 0.00 0.00 0.00 0.00 0.00 0.00 0.00 0.00 0.00 0.00 0.00 0.00 0.00 0.00 0.00 0.00 0.00 0.00 0.00 0.00 0.00 0.00 0.00 0.01 0.01
0.00 0.01 0.01 0.00 0.00 0.00 0.01 0.01 0.01 0.00 0.00 0.00 0.00 0.00 0.00 0.00 0.00 0.00 0.00 0.00 0.00 0.00 0.00 0.00 0.00 0.00 0.00 0.00 0.00 0.00 0.00 0.00 0.00 0.00 0.00 0.00 0.00 0.00 0.00 0.00 0.00 0.00 0.01
MSLP
1024.09 1024.03 1023.88 1023.67 1023.46 1023.26 1023.06 1022.85 1022.61 1022.31 1021.93 1021.49 1021.02 1020.56 1020.16 1019.83 1019.58 1019.40 1019.25 1019.09 1018.87 1018.57 1018.21 1017.80 1017.38 1017.01 1016.71 1016.50 1016.37 1016.28 1016.19 1016.09 1015.92 1015.69 1015.41 1015.10 1014.78 1014.48 1014.22 1013.99 1013.79 1013.60 1013.42
1024.31 1024.26 1024.12 1023.93 1023.72 1023.50 1023.28 1023.04 1022.76 1022.42 1022.02 1021.57 1021.11 1020.68 1020.31 1020.01 1019.80 1019.64 1019.50 1019.33 1019.11 1018.81 1018.45 1018.05 1017.65 1017.30 1017.01 1016.80 1016.64 1016.52 1016.41 1016.26 1016.07 1015.83 1015.55 1015.26 1014.96 1014.69 1014.44 1014.20 1013.97 1013.74 1013.50
1024.68 1024.61 1024.46 1024.24 1024.00 1023.75 1023.50 1023.22 1022.90 1022.55 1022.15 1021.72 1021.29 1020.90 1020.57 1020.30 1020.10 1019.93 1019.77 1019.57 1019.32 1019.01 1018.65 1018.26 1017.89 1017.56 1017.29 1017.07 1016.90 1016.75 1016.59 1016.40 1016.18 1015.92 1015.64 1015.36 1015.10 1014.85 1014.61 1014.38 1014.14 1013.88 1013.60
1025.12 1025.02 1024.83 1024.58 1024.30 1024.00 1023.70 1023.39 1023.06 1022.71 1022.33 1021.94 1021.56 1021.21 1020.91 1020.66 1020.44 1020.25 1020.03 1019.79 1019.50 1019.17 1018.80 1018.44 1018.09 1017.79 1017.54 1017.34 1017.15 1016.97 1016.76 1016.53 1016.27 1015.99 1015.70 1015.43 1015.18 1014.95 1014.74 1014.51 1014.27 1013.99 1013.69
1025.58 1025.44 1025.21 1024.91 1024.58 1024.25 1023.91 1023.58 1023.24 1022.90 1022.55 1022.21 1021.88 1021.58 1021.30 1021.05 1020.81 1020.56 1020.29 1019.99 1019.65 1019.29 1018.92 1018.58 1018.27 1018.00 1017.78 1017.58 1017.39 1017.18 1016.94 1016.66 1016.36 1016.06 1015.76 1015.48 1015.24 1015.01 1014.80 1014.57 1014.32 1014.04 1013.72
1025.97 1025.80 1025.53 1025.20 1024.84 1024.48 1024.12 1023.78 1023.45 1023.12 1022.81 1022.51 1022.23 1021.96 1021.70 1021.44 1021.16 1020.87 1020.54 1020.18 1019.79 1019.41 1019.04 1018.72 1018.44 1018.21 1018.01 1017.82 1017.62 1017.39 1017.11 1016.80 1016.47 1016.13 1015.82 1015.53 1015.27 1015.03 1014.80 1014.56 1014.30 1014.00 1013.69
1026.25 1026.06 1025.78 1025.44 1025.07 1024.70 1024.34 1023.99 1023.67 1023.36 1023.08 1022.81 1022.55 1022.30 1022.05 1021.78 1021.48 1021.15 1020.77 1020.37 1019.96 1019.56 1019.20 1018.89 1018.63 1018.42 1018.24 1018.05 1017.84 1017.58 1017.28 1016.94 1016.58 1016.22 1015.88 1015.57 1015.28 1015.02 1014.76 1014.49 1014.19 1013.88 1013.57
1026.40 1026.21 1025.94 1025.62 1025.26 1024.91 1024.56 1024.22 1023.90 1023.61 1023.33 1023.08 1022.83 1022.59 1022.35 1022.07 1021.76 1021.40 1021.01 1020.59 1020.17 1019.77 1019.41 1019.11 1018.86 1018.66 1018.47 1018.26 1018.03 1017.75 1017.42 1017.05 1016.67 1016.29 1015.93 1015.60 1015.29 1014.98 1014.68 1014.36 1014.03 1013.70 1013.37
1026.43 1026.26 1026.02 1025.74 1025.42 1025.10 1024.77 1024.45 1024.14 1023.84 1023.56 1023.30 1023.05 1022.81 1022.56 1022.29 1021.99 1021.63 1021.25 1020.83 1020.42 1020.03 1019.68 1019.38 1019.13 1018.90 1018.69 1018.45 1018.18 1017.86 1017.50 1017.12 1016.73 1016.34 1015.97 1015.62 1015.28 1014.93 1014.58 1014.22 1013.84 1013.48 1013.14
1026.40 1026.25 1026.06 1025.82 1025.56 1025.28 1024.99 1024.68 1024.37 1024.06 1023.76 1023.47 1023.21 1022.96 1022.72 1022.45 1022.16 1021.84 1021.47 1021.09 1020.70 1020.33 1019.98 1019.67 1019.40 1019.14 1018.87 1018.59 1018.27 1017.91 1017.53 1017.13 1016.73 1016.35 1015.98 1015.62 1015.26 1014.88 1014.49 1014.08 1013.66 1013.26 1012.90
1026.34 1026.22 1026.07 1025.89 1025.69 1025.46 1025.19 1024.90 1024.58 1024.25 1023.92 1023.61 1023.33 1023.06 1022.81 1022.56 1022.29 1022.00 1021.67 1021.33 1020.97 1020.61 1020.27 1019.95 1019.64 1019.33 1019.01 1018.67 1018.29 1017.89 1017.48 1017.07 1016.68 1016.30 1015.95 1015.59 1015.23 1014.84 1014.42 1013.97 1013.52 1013.08 1012.69
1026.31 1026.21 1026.10 1025.96 1025.80 1025.61 1025.37 1025.08 1024.76 1024.42 1024.06 1023.73 1023.41 1023.13 1022.88 1022.63 1022.38 1022.11 1021.82 1021.51 1021.18 1020.84 1020.50 1020.17 1019.82 1019.46 1019.08 1018.68 1018.25 1017.81 1017.38 1016.96 1016.57 1016.21 1015.88 1015.55 1015.20 1014.81 1014.38 1013.91 1013.43 1012.97 1012.55
1026.34 1026.25 1026.15 1026.04 1025.91 1025.74 1025.51 1025.24 1024.91 1024.55 1024.18 1023.82 1023.49 1023.19 1022.92 1022.67 1022.43 1022.18 1021.91 1021.62 1021.31 1020.98 1020.64 1020.28 1019.91 1019.51 1019.09 1018.64 1018.17 1017.70 1017.24 1016.82 1016.44 1016.10 1015.79 1015.49 1015.16 1014.79 1014.37 1013.90 1013.41 1012.92 1012.47
1026.46 1026.35 1026.25 1026.14 1026.01 1025.84 1025.62 1025.34 1025.01 1024.65 1024.27 1023.90 1023.55 1023.24 1022.97 1022.71 1022.46 1022.20 1021.93 1021.65 1021.34 1021.01 1020.67 1020.30 1019.91 1019.49 1019.04 1018.56 1018.07 1017.57 1017.11 1016.68 1016.31 1015.98 1015.70 1015.42 1015.12 1014.77 1014.37 1013.91 1013.42 1012.92 1012.44
1026.64 1026.52 1026.39 1026.26 1026.10 1025.91 1025.68 1025.40 1025.07 1024.71 1024.34 1023.98 1023.63 1023.32 1023.03 1022.75 1022.48 1022.21 1021.92 1021.61 1021.29 1020.96 1020.61 1020.24 1019.85 1019.43 1018.98 1018.49 1017.99 1017.49 1017.01 1016.58 1016.21 1015.89 1015.61 1015.34 1015.06 1014.74 1014.36 1013.92 1013.44 1012.93 1012.43
1026.89 1026.74 1026.57 1026.39 1026.20 1025.97 1025.71 1025.42 1025.09 1024.75 1024.40 1024.05 1023.73 1023.42 1023.12 1022.83 1022.53 1022.22 1021.90 1021.56 1021.22 1020.87 1020.52 1020.16 1019.78 1019.38 1018.94 1018.47 1017.97 1017.47 1016.99 1016.55 1016.15 1015.82 1015.53 1015.26 1014.98 1014.67 1014.31 1013.89 1013.41 1012.91 1012.40
1027.15 1026.98 1026.78 1026.55 1026.30 1026.02 1025.73 1025.42 1025.10 1024.77 1024.45 1024.13 1023.83 1023.54 1023.24 1022.94 1022.62 1022.27 1021.91 1021.54 1021.17 1020.81 1020.46 1020.11 1019.75 1019.38 1018.97 1018.52 1018.04 1017.55 1017.05 1016.59 1016.16 1015.79 1015.46 1015.15 1014.86 1014.54 1014.18 1013.76 1013.30 1012.80 1012.28
1027.38 1027.22 1026.99 1026.71 1026.41 1026.09 1025.76 1025.42 1025.10 1024.79 1024.50 1024.22 1023.95 1023.68 1023.40 1023.09 1022.75 1022.38 1021.99 1021.60 1021.20 1020.83 1020.48 1020.14 1019.81 1019.46 1019.08 1018.66 1018.20 1017.71 1017.20 1016.70 1016.22 1015.79 1015.39 1015.03 1014.68 1014.33 1013.95 1013.53 1013.07 1012.58 1012.07
1027.56 1027.42 1027.18 1026.88 1026.54 1026.18 1025.81 1025.46 1025.13 1024.83 1024.57 1024.32 1024.08 1023.84 1023.58 1023.28 1022.94 1022.56 1022.15 1021.74 1021.33 1020.95 1020.60 1020.27 1019.96 1019.64 1019.29 1018.89 1018.44 1017.95 1017.41 1016.87 1016.33 1015.82 1015.34 1014.89 1014.47 1014.06 1013.64 1013.20 1012.73 1012.24 1011.74
1027.64 1027.55 1027.34 1027.04 1026.68 1026.29 1025.90 1025.53 1025.20 1024.91 1024.66 1024.43 1024.22 1024.01 1023.76 1023.48 1023.15 1022.78 1022.38 1021.96 1021.55 1021.17 1020.82 1020.50 1020.19 1019.89 1019.56 1019.18 1018.74 1018.24 1017.68 1017.09 1016.48 1015.88 1015.30 1014.75 1014.23 1013.74 1013.26 1012.78 1012.29 1011.80 1011.30
1027.60 1027.59 1027.44 1027.17 1026.82 1026.43 1026.03 1025.66 1025.32 1025.02 1024.77 1024.56 1024.36 1024.16 1023.94 1023.68 1023.38 1023.02 1022.64 1022.23 1021.83 1021.45 1021.10 1020.78 1020.48 1020.18 1019.86 1019.49 1019.06 1018.55 1017.97 1017.34 1016.66 1015.98 1015.30 1014.64 1014.02 1013.42 1012.86 1012.32 1011.80 1011.30 1010.81
1027.45 1027.53 1027.45 1027.24 1026.93 1026.57 1026.18 1025.81 1025.47 1025.17 1024.92 1024.70 1024.50 1024.31 1024.10 1023.86 1023.57 1023.25 1022.88 1022.50 1022.11 1021.73 1021.38 1021.06 1020.76 1020.46 1020.14 1019.78 1019.36 1018.85 1018.27 1017.61 1016.89 1016.13 1015.35 1014.59 1013.85 1013.15 1012.50 1011.88 1011.32 1010.79 1010.29
1027.19 1027.37 1027.38 1027.23 1026.99 1026.68 1026.33 1025.98 1025.65 1025.35 1025.08 1024.85 1024.64 1024.43 1024.22 1023.99 1023.73 1023.42 1023.09 1022.72 1022.34 1021.97 1021.62 1021.29 1020.98 1020.67 1020.36 1020.02 1019.61 1019.13 1018.55 1017.89 1017.14 1016.33 1015.48 1014.62 1013.78 1012.97 1012.22 1011.52 1010.90 1010.33 1009.82
1026.87 1027.13 1027.21 1027.14 1026.97 1026.73 1026.44 1026.13 1025.82 1025.53 1025.26 1025.00 1024.77 1024.54 1024.32 1024.09 1023.83 1023.54 1023.22 1022.87 1022.50 1022.13 1021.77 1021.42 1021.10 1020.80 1020.49 1020.17 1019.80 1019.35 1018.81 1018.17 1017.43 1016.59 1015.69 1014.75 1013.82 1012.91 1012.06 1011.28 1010.58 1009.96 1009.41
1026.52 1026.82 1026.97 1026.97 1026.88 1026.71 1026.49 1026.23 1025.96 1025.69 1025.41 1025.14 1024.88 1024.64 1024.40 1024.15 1023.89 1023.61 1023.29 1022.95 1022.58 1022.20 1021.82 1021.46 1021.13 1020.82 1020.53 1020.24 1019.91 1019.52 1019.03 1018.44 1017.72 1016.89 1015.96 1014.97 1013.95 1012.96 1012.02 1011.15 1010.38 1009.70 1009.10
1026.18 1026.50 1026.68 1026.73 1026.70 1026.60 1026.45 1026.26 1026.04 1025.79 1025.53 1025.26 1024.98 1024.72 1024.46 1024.19 1023.92 1023.63 1023.32 1022.97 1022.59 1022.19 1021.80 1021.42 1021.07 1020.76 1020.49 1020.23 1019.95 1019.62 1019.21 1018.67 1017.99 1017.18 1016.24 1015.22 1014.15 1013.09 1012.07 1011.13 1010.28 1009.54 1008.88
Thickness
5758 5758 5754 5753 5753 5752 5752 5751 5750 5750 5749 5749 5748 5747 5746 5745 5745 5744 5743 5742 5741 5741 5741 5740 5739 5739 5738 5738 5737 5736 5736 5735 5734 5734 5733 5732 5732 5731 5731 5730 5730 5731 5729
5758 5755 5750 5750 5750 5749 5748 5748 5747 5746 5746 5745 5744 5744 5743 5742 5741 5740 5739 5739 5738 5737 5737 5736 5736 5735 5735 5734 5733 5733 5732 5731 5730 5730 5729 5729 5728 5727 5727 5726 5726 5727 5725
5753 5751 5747 5746 5745 5745 5744 5744 5743 5742 5741 5741 5740 5740 5739 5738 5737 5736 5736 5735 5734 5734 5733 5732 5732 5731 5730 5730 5729 5728 5728 5727 5726 5726 5726 5727 5726 5724 5723 5722 5722 5722 5721
5747 5746 5744 5741 5741 5740 5740 5739 5738 5738 5737 5736 5736 5735 5735 5734 5733 5732 5732 5731 5730 5729 5729 5728 5727 5726 5726 5725 5725 5724 5723 5722 5722 5722 5724 5724 5723 5720 5719 5718 5718 5717 5717
5741 5740 5738 5736 5736 5735 5735 5734 5734 5733 5732 5732 5731 5730 5730 5729 5728 5728 5727 5726 5725 5725 5724 5723 5722 5722 5721 5720 5720 5719 5718 5717 5717 5719 5719 5719 5718 5715 5715 5714 5714 5713 5712
5735 5734 5731 5730 5730 5730 5729 5729 5728 5728 5727 5726 5726 5725 5725 5724 5723 5722 5721 5721 5720 5720 5719 5718 5718 5717 5716 5716 5715 5714 5713 5713 5714 5715 5714 5714 5713 5710 5710 5709 5709 5708 5707
5729 5727 5725 5724 5724 5723 5723 5722 5722 5722 5721 5721 5720 5719 5719 5718 5718 5717 5716 5715 5715 5714 5713 5713 5712 5712 5711 5711 5710 5709 5708 5708 5709 5710 5709 5708 5707 5705 5705 5705 5704 5703 5702
5721 5720 5718 5717 5717 5717 5716 5716 5716 5716 5715 5715 5714 5713 5713 5712 5711 5711 5710 5709 5709 5708 5707 5707 5707 5706 5706 5705 5704 5704 5703 5703 5704 5704 5704 5703 5700 5700 5699 5699 5699 5698 5697
5713 5713 5712 5711 5710 5710 5710 5710 5709 5709 5709 5708 5707 5706 5706 5705 5705 5704 5703 5703 5702 5702 5701 5701 5701 5700 5700 5699 5699 5698 5698 5698 5700 5699 5698 5697 5695 5694 5694 5693 5693 5693 5692
5705 5705 5705 5705 5705 5705 5704 5703 5702 5702 5701 5701 5700 5699 5699 5698 5697 5697 5697 5696 5696 5695 5695 5695 5695 5695 5694 5694 5693 5693 5692 5693 5694 5694 5693 5691 5689 5689 5688 5688 5688 5687 5687
5696 5698 5698 5699 5698 5698 5698 5696 5695 5695 5694 5694 5693 5692 5692 5692 5691 5690 5689 5689 5689 5689 5689 5688 5688 5688 5688 5688 5687 5687 5688 5689 5689 5688 5686 5684 5683 5683 5683 5683 5682 5682 5681
5689 5690 5691 5692 5692 5691 5690 5690 5689 5688 5687 5687 5687 5686 5686 5685 5684 5683 5682 5682 5682 5682 5682 5682 5682 5682 5683 5684 5683 5682 5683 5683 5683 5682 5680 5678 5678 5678 5677 5677 5676 5676 5675
5683 5682 5684 5684 5684 5684 5683 5683 5682 5682 5681 5680 5680 5680 5679 5678 5678 5677 5677 5676 5676 5676 5676 5676 5677 5677 5677 5677 5677 5677 5677 5677 5677 5675 5673 5671 5671 5671 5671 5670 5670 5669 5669
5676 5676 5676 5676 5676 5676 5676 5676 5675 5675 5674 5673 5673 5673 5673 5672 5671 5671 5671 5670 5670 5669 5669 5670 5670 5670 5670 5670 5671 5671 5670 5670 5670 5668 5667 5664 5664 5664 5664 5664 5663 5663 5662
5668 5669 5669 5669 5669 5669 5669 5668 5668 5668 5667 5666 5665 5665 5665 5665 5664 5664 5663 5663 5663 5662 5663 5663 5664 5664 5664 5664 5663 5663 5663 5663 5663 5661 5660 5658 5657 5657 5657 5657 5656 5655 5655
5661 5661 5662 5662 5662 5662 5662 5661 5661 5660 5659 5659 5658 5658 5657 5657 5657 5657 5656 5656 5655 5655 5655 5656 5656 5656 5657 5656 5656 5656 5656 5655 5655 5654 5653 5652 5650 5649 5649 5648 5648 5648 5647
5655 5654 5654 5654 5654 5655 5654 5654 5653 5652 5652 5652 5650 5650 5649 5649 5649 5649 5649 5649 5648 5648 5648 5648 5649 5649 5649 5649 5649 5648 5648 5647 5647 5647 5645 5644 5644 5642 5641 5640 5639 5639 5638
5649 5648 5647 5647 5647 5647 5647 5646 5645 5645 5645 5644 5643 5642 5642 5641 5641 5641 5641 5641 5640 5640 5640 5641 5641 5641 5641 5641 5641 5641 5640 5639 5639 5638 5638 5637 5635 5634 5633 5631 5630 5629 5629
5642 5642 5640 5640 5640 5639 5638 5638 5637 5637 5636 5636 5635 5635 5634 5633 5633 5634 5633 5632 5632 5632 5633 5633 5633 5633 5633 5633 5633 5632 5632 5632 5631 5630 5629 5628 5626 5625 5624 5623 5621 5620 5619
5635 5635 5634 5633 5633 5632 5630 5630 5629 5628 5628 5628 5627 5627 5626 5626 5626 5626 5625 5624 5624 5625 5625 5625 5625 5624 5624 5624 5625 5625 5624 5624 5622 5622 5620 5619 5617 5616 5615 5614 5613 5613 5611
5627 5628 5628 5627 5626 5625 5624 5624 5623 5623 5622 5621 5620 5619 5618 5618 5618 5618 5618 5617 5617 5617 5617 5617 5617 5616 5616 5615 5618 5619 5619 5617 5615 5613 5612 5610 5609 5608 5607 5605 5604 5603 5602
5621 5621 5622 5621 5621 5620 5619 5619 5618 5617 5615 5614 5612 5611 5611 5611 5610 5610 5610 5610 5609 5609 5609 5609 5608 5608 5606 5606 5608 5611 5613 5613 5610 5605 5603 5601 5600 5599 5598 5597 5595 5593 5592
5614 5615 5616 5616 5615 5614 5613 5612 5610 5608 5607 5607 5606 5606 5604 5604 5603 5603 5603 5602 5602 5602 5601 5600 5599 5599 5599 5597 5596 5598 5601 5603 5601 5600 5597 5594 5592 5591 5590 5588 5586 5584 5582
5607 5608 5609 5609 5608 5607 5606 5607 5608 5607 5606 5605 5603 5600 5598 5597 5596 5595 5595 5595 5594 5594 5593 5592 5591 5590 5589 5589 5587 5584 5584 5584 5585 5590 5590 5588 5585 5583 5581 5580 5578 5576 5573
5599 5600 5601 5601 5602 5601 5601 5602 5602 5602 5601 5598 5596 5594 5593 5591 5590 5588 5588 5587 5586 5585 5584 5583 5582 5581 5580 5579 5577 5575 5574 5573 5573 5574 5579 5579 5578 5575 5572 5570 5569 5567 5564
5590 5591 5593 5594 5595 5595 5595 5595 5596 5596 5594 5592 5590 5589 5587 5585 5584 5582 5581 5580 5579 5578 5577 5575 5574 5572 5571 5569 5568 5566 5565 5565 5564 5563 5565 5567 5568 5567 5563 5561 5559 5557 5554